Location: Drocourt
(49.0571°N, 1.7669°E)
Time: 16:27:02
(UTC+00:00)

Vanguard 3 - Pass Details

Date: 13 April 2024
Orbit: 509 x 3233 km, 33.3° (Epoch: 23 May)

Event Time Altitude Azimuth Distance (km) Brightness Sun altitude
Rises 05:43:40 0° 216° (SW) 4,935 10.7 5.4°
Reaches altitude 10° 05:49:54 10° 190° (S) 3,232 10.1 6.4°
Maximum altitude 05:52:35 12° 170° (S) 2,768 10.0 6.8°
Drops below altitude 10° 05:54:54 10° 148° (SSE) 2,660 10.2 7.2°
Sets 05:58:47 0° 116° (ESE) 3,182 11.3 7.8°
